Regional Weather Roundup
Issued by NWS

Home | Current Version | Previous Version | Graphics & Text | Print | Product List | Glossary On
Versions: 1 2 3 4 5 6 7 8 9 10 11 12 13 14 15 16 17 18 19 20 21 22 23 24 25 26 27 28 29 30 31 32 33 34 35 36 37 38 39 40 41 42 43 44 45 46 47 48 49 50
492
ASUS43 KBIS 021102
RWRND

NORTH DAKOTA REGIONAL WEATHER ROUNDUP
NATIONAL WEATHER SERVICE BISMARCK ND
600 AM CDT MON MAY 02 2016

NOTE: "FAIR" INDICATES FEW OR NO CLOUDS BELOW 12,000 FEET WITH NO
SIGNIFICANT WEATHER AND/OR OBSTRUCTIONS TO VISIBILITY.


NDZ001>003-009>011-017-021200-
NORTHWEST NORTH DAKOTA

CITY           SKY/WX    TMP DP  RH WIND       PRES   REMARKS
WILLISTON      CLOUDY    51  35  54 W18       30.04F
MINOT          CLOUDY    54  35  48 SW14      29.97F
MINOT AFB      CLOUDY    48  38  66 W5        29.97S
$$

NDZ018>021-031>035-040>046-021200-
SOUTHWEST NORTH DAKOTA

CITY           SKY/WX    TMP DP  RH WIND       PRES   REMARKS
BISMARCK       CLOUDY    44  37  76 S8        30.05F
DICKINSON      MOCLDY    41  32  70 W10       30.06F
GARRISON         N/A     49  36  61 N5        30.02S
HETTINGER ARPT MOCLDY    39  34  82 NW6       30.11F
$$

NDZ004>008-012>016-024-026-027-054-021200-
NORTHEAST NORTH DAKOTA

CITY           SKY/WX    TMP DP  RH WIND       PRES   REMARKS
GRAND FORKS    MOCLDY    39  31  72 S3        30.04F
GRND FRKS AFB  CLOUDY    44  32  62 W5        30.04F
DEVILS LAKE    CLOUDY    53  35  50 S7        30.02F
$$

NDZ022-023-025-028>030-036>039-047>053-021200-
SOUTHEAST NORTH DAKOTA

CITY           SKY/WX    TMP DP  RH WIND       PRES   REMARKS
FARGO          CLOUDY    42  31  64 S3        30.06F
JAMESTOWN      PTCLDY    45  32  60 SW7       30.05F
$$





USA.gov is the U.S. government's official web portal to all federal, state and local government web resources and services.